sat.trackr.live / text

‹ back to catalog

JILIN-1 GAOFEN 3G

NORAD 46459 · 2020-065F

PAYLOAD ACTIVE UNKNOWN

§ Identity

Operator
Country
PRC
Launch date
2020-09-15
Launch site
SEAL
Launch vehicle
Mass (kg)
RCS (m²)

External: N2YO · Heavens-Above · Gunter

§ Orbital elements

Epoch: 2026-09-13T03:54:11.846304Z

Period
89.82 min
Inclination
97.2112°
Eccentricity
0.0003631
Mean motion
16.03213770 rev/d
Perigee alt
263.1 km
Apogee alt
267.9 km
Semi-major
6,643.7 km
B*
4.4712e-4
RAAN
317.4081°
Arg perigee
200.4364°
Mean anomaly
159.6772°
Rev number
33,385

§ Raw data

JILIN-1 GAOFEN 3G1 46459U 20065F   26256.16263711  .00272328  34275-4  44712-3 0  99992 46459  97.2112 317.4081 0003631 200.4364 159.6772 16.03213770333857

JSON: /api/v1/satellites/46459 · /tle

For live sub-satellite position, see the globe view (requires WebGL).

§ Visibility from observer

Set your observer location to see the next 7 days of passes ≥ 10°. The values pass through the URL so the page stays shareable.

No JS? Fill the form by hand. The geolocation button needs JavaScript.

§ Radio — SatNOGS DB

ModeDescriptionDownlinkUplink
BPSK Jillin Mysterious Pip 1.616 GHz

1 transmitter · refreshed weekly from db.satnogs.org